User: anonymous   Login
Location: Clinton NY
(43.0598°N, 75.3602°W)
Time: 23:34:14
(UTC-05:00)
Language:

Iridium 11 - Orbit

View from above orbital plane
View from above orbital plane
View from above satellite
View from above satellite

Ground track
Ground track

The orbit data is extracted from the following two-line orbital elements,

1 25578U 98074B   17055.58268762  .00000175  00000-0  55505-4 0  9994
2 25578  86.3960 302.6754 0001946  82.4652 329.8072 14.34219710961262
Epoch (UTC): 24 February 2017 13:59:04
Eccentricity: 0.0001946
inclination: 86.3960°
perigee height: 776 km
apogee height: 779 km
right ascension of ascending node: 302.6754°
argument of perigee: 82.4652°
revolutions per day: 14.34219710
mean anomaly at epoch: 329.8072°
orbit number at epoch: 96126

The dashed part of the orbit path shows where the satellite is in the earth's shadow,  

DLR